Location: Harbor Side
(32.6101°N, 117.0814°W)
Time: 08:00:32
(UTC+00:00)

FENGYUN 3A - Pass Details

Date: 21 April 2021
Orbit: 823 x 837 km, 98.4° (Epoch: 13 May)

Event Time Altitude Azimuth Distance (km) Brightness Sun altitude
Rises 12:31:12 0° 3° (N) 3,365 7.2 -8.9°
Reaches altitude 10° 12:33:41 10° 356° (N) 2,428 6.3 -8.4°
Maximum altitude 12:38:38 39° 288° (WNW) 1,211 4.2 -7.5°
Drops below altitude 10° 12:43:34 10° 221° (SW) 2,413 5.6 -6.5°
Sets 12:46:02 0° 214° (SSW) 3,342 6.3 -6.0°
